Total_Precipitation_Accumulation
0.02 0.06 0.19 0.39 0.58 0.89 1.04 0.66 0.52 0.54 0.46 0.44 0.39 0.34 0.38 0.46 0.50 0.75 0.54 0.26 0.12 0.08 0.08 0.15 0.19 0.14 0.11 0.13 0.17 0.21 0.21 0.17 0.16 0.17 0.17 0.16 0.15 0.16 0.15 0.16 0.24 0.32 0.30 0.25 0.25 0.25 0.25 0.25 0.23
0.02 0.08 0.21 0.44 0.78 1.20 1.02 0.55 0.46 0.53 0.41 0.44 0.45 0.43 0.44 0.46 0.40 0.31 0.35 0.26 0.12 0.09 0.09 0.11 0.16 0.16 0.14 0.14 0.16 0.19 0.20 0.19 0.20 0.21 0.18 0.17 0.17 0.18 0.17 0.17 0.20 0.25 0.24 0.22 0.17 0.18 0.19 0.17 0.14
0.05 0.12 0.22 0.36 0.73 1.00 0.76 0.47 0.36 0.38 0.39 0.50 0.62 0.55 0.53 0.51 0.45 0.40 0.37 0.24 0.16 0.12 0.10 0.14 0.17 0.20 0.19 0.16 0.18 0.20 0.21 0.22 0.23 0.21 0.20 0.19 0.19 0.19 0.17 0.16 0.18 0.19 0.17 0.16 0.16 0.17 0.16 0.13 0.10
0.05 0.15 0.24 0.33 0.45 0.42 0.40 0.43 0.33 0.42 0.55 0.55 0.62 0.70 0.63 0.48 0.45 0.50 0.50 0.37 0.23 0.18 0.14 0.19 0.22 0.21 0.24 0.21 0.20 0.22 0.22 0.22 0.21 0.19 0.18 0.18 0.20 0.21 0.19 0.17 0.19 0.21 0.21 0.18 0.18 0.19 0.18 0.14 0.11
0.07 0.16 0.23 0.28 0.37 0.30 0.28 0.34 0.34 0.43 0.48 0.53 0.57 0.80 0.77 0.61 0.50 0.50 0.46 0.46 0.32 0.35 0.27 0.28 0.31 0.29 0.25 0.21 0.21 0.21 0.21 0.23 0.22 0.19 0.19 0.20 0.21 0.21 0.19 0.17 0.16 0.17 0.20 0.21 0.20 0.20 0.17 0.18 0.18
0.06 0.12 0.21 0.23 0.25 0.25 0.26 0.31 0.36 0.43 0.50 0.60 0.72 0.93 0.89 0.68 0.65 0.68 0.68 0.59 0.43 0.48 0.43 0.37 0.35 0.32 0.29 0.24 0.24 0.25 0.23 0.23 0.24 0.23 0.21 0.20 0.19 0.19 0.19 0.19 0.16 0.14 0.14 0.17 0.20 0.23 0.20 0.18 0.23
0.03 0.06 0.11 0.14 0.15 0.21 0.24 0.24 0.32 0.50 0.73 0.81 0.91 1.07 0.96 1.01 0.99 0.96 0.96 0.83 0.64 0.59 0.55 0.47 0.41 0.35 0.34 0.31 0.30 0.30 0.29 0.28 0.26 0.24 0.23 0.21 0.19 0.18 0.19 0.20 0.19 0.16 0.15 0.15 0.17 0.19 0.18 0.17 0.21
0.01 0.03 0.05 0.07 0.11 0.17 0.19 0.19 0.24 0.39 0.76 0.84 0.85 0.86 1.03 1.01 1.04 1.30 1.25 1.18 0.98 0.86 0.66 0.57 0.55 0.50 0.45 0.41 0.40 0.40 0.35 0.34 0.33 0.29 0.29 0.28 0.28 0.25 0.27 0.26 0.25 0.25 0.23 0.20 0.19 0.21 0.21 0.21 0.22
0.01 0.03 0.05 0.05 0.09 0.11 0.12 0.17 0.22 0.35 0.53 0.71 0.86 0.79 0.87 0.84 0.93 1.24 1.38 1.54 1.44 1.14 0.93 0.77 0.70 0.65 0.59 0.54 0.52 0.55 0.52 0.50 0.47 0.45 0.43 0.41 0.40 0.44 0.47 0.42 0.46 0.43 0.42 0.43 0.42 0.43 0.42 0.40 0.32
0.01 0.03 0.03 0.03 0.08 0.11 0.09 0.11 0.15 0.38 0.79 1.12 1.21 0.98 0.97 1.01 1.26 1.52 1.60 1.62 1.66 1.32 1.06 0.99 0.91 0.81 0.72 0.60 0.68 0.81 0.75 0.72 0.67 0.73 0.69 0.66 0.72 0.69 0.54 0.61 0.78 0.92 0.96 0.93 1.00 1.11 0.90 0.71 0.72
0.01 0.01 0.03 0.04 0.06 0.05 0.04 0.07 0.16 0.33 0.77 1.08 1.20 1.15 1.19 1.19 1.46 1.76 1.84 1.68 1.70 1.60 1.31 1.20 1.11 1.01 0.97 0.97 0.90 0.93 0.91 0.96 0.92 0.98 1.04 1.05 0.95 0.80 0.76 0.89 1.12 1.31 1.36 1.32 1.63 1.68 1.22 1.29 1.58
0.00 0.01 0.02 0.03 0.05 0.03 0.03 0.08 0.23 0.38 0.61 0.88 0.93 1.41 1.58 1.39 1.64 1.78 1.82 1.92 1.93 1.90 1.61 1.43 1.34 1.30 1.25 1.18 1.13 1.07 1.10 1.15 1.18 1.28 1.31 1.41 1.46 1.35 1.32 1.40 1.48 1.65 1.75 1.95 2.07 2.18 1.90 1.89 1.79
0.00 0.01 0.01 0.03 0.04 0.05 0.07 0.14 0.20 0.45 0.59 0.80 0.98 1.33 1.52 1.41 1.68 1.88 2.06 2.13 2.19 2.00 1.76 1.73 1.54 1.44 1.45 1.51 1.55 1.45 1.51 1.50 1.49 1.60 1.69 1.77 1.96 1.94 1.89 1.79 1.80 1.75 1.94 2.13 2.42 2.35 2.59 2.53 2.25
0.01 0.02 0.02 0.03 0.04 0.08 0.23 0.32 0.31 0.56 0.64 0.80 1.04 1.42 1.49 1.40 1.50 1.47 1.69 1.94 2.11 1.95 1.84 1.81 1.72 1.77 1.87 1.87 1.87 1.95 1.98 1.96 1.92 1.90 1.95 2.00 2.19 2.41 2.33 2.11 2.08 1.96 2.03 2.33 2.59 2.61 2.98 2.82 2.66
0.01 0.05 0.06 0.07 0.11 0.18 0.28 0.48 0.51 0.63 0.69 0.90 0.98 1.20 1.34 1.29 1.34 1.46 1.59 1.73 1.83 1.74 1.86 2.02 2.16 2.30 2.44 2.49 2.48 2.43 2.45 2.35 2.32 2.43 2.48 2.52 2.51 2.55 2.41 2.25 2.16 2.27 2.40 2.59 2.63 2.73 3.03 2.76 2.65
0.03 0.11 0.16 0.17 0.18 0.24 0.42 0.85 0.79 0.82 0.78 0.85 0.91 1.08 1.19 1.19 1.31 1.57 1.64 1.70 1.72 1.70 1.85 2.11 2.26 2.54 2.74 2.83 2.93 2.93 2.87 2.73 2.77 2.75 2.76 2.77 2.67 2.57 2.61 2.36 2.17 2.41 2.56 2.73 2.88 2.85 2.91 2.90 2.85
0.05 0.11 0.18 0.22 0.15 0.18 0.34 0.65 0.62 0.73 0.91 0.86 0.88 0.94 0.99 1.01 1.10 1.28 1.49 1.60 1.74 1.99 2.25 2.59 2.68 2.65 2.74 2.94 3.08 2.94 2.88 2.77 2.71 2.62 2.60 2.55 2.49 2.48 2.73 2.52 2.49 2.63 2.82 2.73 2.55 2.89 3.01 2.94 2.90
0.04 0.09 0.14 0.19 0.18 0.15 0.29 0.46 0.54 0.65 0.82 0.92 0.90 0.97 1.04 1.11 1.31 1.49 1.70 1.83 1.97 2.34 2.67 2.79 2.86 3.08 3.37 3.58 3.49 3.22 2.88 2.65 2.55 2.44 2.32 2.32 2.41 2.44 2.69 2.47 2.54 2.73 2.89 2.93 2.93 2.99 2.97 2.85 2.90
0.04 0.10 0.13 0.15 0.20 0.21 0.31 0.38 0.63 0.85 0.97 1.09 1.21 1.40 1.54 1.70 1.78 1.90 2.12 2.29 2.35 2.37 2.57 2.81 3.14 3.52 3.63 3.53 3.49 3.42 3.08 2.77 2.42 2.19 2.18 2.27 2.24 2.35 2.61 2.34 2.65 2.78 2.79 2.92 2.97 3.09 2.97 2.81 2.98
0.05 0.11 0.15 0.18 0.24 0.22 0.36 0.48 0.70 1.05 1.16 1.12 1.14 1.18 1.21 1.57 1.80 1.95 2.16 2.28 2.21 2.32 2.56 2.89 3.18 3.52 3.48 3.58 3.74 3.62 3.35 2.77 2.40 2.19 2.16 2.20 2.21 2.25 2.39 2.65 2.70 2.77 2.81 2.84 2.80 2.83 2.64 2.45 2.80
0.08 0.10 0.14 0.19 0.29 0.26 0.36 0.68 0.87 1.12 1.23 1.10 1.07 1.08 0.98 1.17 1.47 1.61 1.73 1.88 2.10 2.43 2.79 3.05 3.23 3.31 3.34 3.47 3.53 3.21 2.97 2.55 2.42 2.40 2.29 2.22 2.31 2.35 2.46 2.62 2.71 2.63 2.54 2.59 2.68 2.58 2.44 2.27 2.40
0.10 0.08 0.09 0.14 0.24 0.37 0.45 0.95 1.24 1.42 1.29 1.05 1.08 1.14 1.21 1.28 1.29 1.40 1.53 1.81 2.14 2.44 2.81 3.18 3.16 3.13 3.09 3.21 3.28 3.08 2.79 2.52 2.41 2.41 2.19 2.05 2.03 2.08 2.18 2.25 2.41 2.47 2.45 2.41 2.37 2.35 2.36 2.29 2.16
0.07 0.06 0.07 0.13 0.21 0.36 0.51 0.87 1.28 1.35 1.24 1.01 0.95 1.11 1.31 1.25 1.19 1.30 1.43 1.65 1.85 2.13 2.42 2.73 2.94 2.98 2.90 2.89 2.88 2.83 2.62 2.37 2.21 2.12 1.99 1.95 1.98 1.89 1.88 1.98 2.17 2.22 2.14 2.13 2.26 2.42 2.40 2.24 2.09
0.05 0.06 0.11 0.21 0.37 0.63 0.51 0.64 1.03 1.23 1.10 0.90 0.90 1.00 1.16 1.32 1.33 1.36 1.54 1.67 1.74 1.91 2.16 2.35 2.50 2.56 2.53 2.47 2.47 2.48 2.40 2.32 2.15 1.98 1.97 2.00 1.95 1.81 1.75 1.77 1.87 1.94 1.93 1.90 1.93 2.04 2.08 2.06 2.14
0.07 0.14 0.41 0.71 0.98 0.85 0.54 0.66 1.01 0.93 0.79 0.70 0.77 0.96 1.16 1.40 1.40 1.46 1.61 1.70 1.75 1.79 1.83 1.89 1.96 2.03 1.97 1.91 1.91 1.95 1.95 1.94 1.85 1.82 1.86 1.89 1.84 1.74 1.70 1.64 1.58 1.59 1.61 1.69 1.84 1.87 1.87 1.96 2.06
0.10 0.19 0.48 0.59 0.69 0.68 0.66 0.90 0.95 0.75 0.64 0.65 0.72 0.84 1.05 1.20 1.25 1.33 1.40 1.34 1.27 1.29 1.33 1.38 1.40 1.43 1.40 1.43 1.51 1.53 1.62 1.64 1.61 1.72 1.73 1.75 1.72 1.67 1.55 1.41 1.37 1.35 1.37 1.46 1.63 1.80 1.81 1.90 1.95
0.19 0.24 0.24 0.39 0.44 0.67 0.81 0.93 0.84 0.64 0.73 0.78 0.84 0.86 0.89 0.89 0.87 0.88 0.90 0.95 1.00 1.01 1.02 1.03 1.07 1.08 1.03 1.04 1.17 1.25 1.32 1.36 1.37 1.47 1.50 1.45 1.43 1.36 1.32 1.29 1.28 1.24 1.27 1.31 1.34 1.47 1.49 1.57 1.63
0.20 0.31 0.42 0.60 0.74 0.81 0.81 1.04 1.13 1.04 0.99 0.94 1.06 1.25 1.07 0.78 0.66 0.63 0.62 0.67 0.71 0.73 0.78 0.85 0.93 1.01 0.99 0.93 0.95 0.98 1.03 1.06 1.16 1.21 1.23 1.25 1.28 1.25 1.19 1.19 1.19 1.15 1.13 1.15 1.18 1.21 1.27 1.26 1.30
0.31 0.38 0.47 0.59 0.66 0.76 0.84 0.95 0.78 1.00 1.03 1.02 1.04 1.05 0.88 0.58 0.41 0.37 0.37 0.41 0.49 0.61 0.69 0.72 0.83 0.91 0.86 0.77 0.77 0.82 0.83 0.87 0.93 1.00 1.01 1.06 1.11 1.18 1.19 1.15 1.12 1.02 0.96 0.96 0.98 0.99 1.09 1.10 1.10
0.26 0.39 0.49 0.63 0.66 0.68 0.78 0.87 0.57 0.70 0.73 0.73 0.76 0.62 0.49 0.37 0.28 0.24 0.23 0.27 0.34 0.43 0.49 0.56 0.66 0.75 0.77 0.74 0.75 0.79 0.81 0.81 0.81 0.84 0.83 0.85 0.90 0.93 0.94 0.94 1.00 1.03 1.01 0.99 0.97 0.94 0.92 0.98 1.01